Tracking 26321 objects as of 27-Nov-2022
HD Live streaming from Space Station
objects crossing your sky now

SXC3-2111 (SIBSU RESHUCUBE)

Track SXC3-2111 (SIBSU RESHUCUBE) now!
10-day predictions
SXC3-2111 (SIBSU RESHUCUBE) is classified as:


NORAD ID: 53382
Int'l Code: 2022-096N
Perigee: 487.5 km
Apogee: 495.9 km
Inclination: 97.4 °
Period: 94.3 minutes
Semi major axis: 6862 km
RCS: Unknown
Launch date: August 9, 2022
Source: (TBD)
Launch site: TYURATAM MISSILE AND SPACE COMPLEX (TTMTR)

Uplink (MHz):
Downlink (MHz): 435.380
Beacon (MHz):
Mode: 2400bps GMSK USP
Call sign: RS8S
Status: Active

aabbcc
Your satellite tracking list
Your tracking list is empty




NASA's NSSDC Master Catalog

Two Line Element Set (TLE):
1 53382U 22096N   22331.09742730  .00007279  00000-0  27662-3 0  9994
2 53382  97.4281 231.9127 0006141  66.0881  41.9345 15.27081990 16746
Source of the keplerian elements: AFSPC